Simultaneous Nadir Overpasses (SNOs) Predictions

Prediction of SNOs between NOAA-21 and LANDSAT-8 Satellite Orbit:

Table of predicted SNOs for the next 14.0 days since TLE Epoch: 10/5/2024
Index Date (NOAA-21) Time (NOAA-21) Lat,Lon (NOAA-21) SZA (NOAA-21 ) Date (LANDSAT-8) Time (LANDSAT-8) Lat,Lon (LANDSAT-8) SZA (LANDSAT-8 ) Distance(km) Time Diff (sec)
1 10/06/2024 06:20:38 70.14, 81.21 75.36 10/06/2024 06:21:10 70.11, 81.17 75.33 3.05 32
2 10/06/2024 07:11:19 -70.02,-111.29 104.75 10/06/2024 07:10:40 -70.00,-111.36 104.77 3.31 39
3 10/08/2024 21:46:56 -70.48, 29.13 103.29 10/08/2024 21:48:07 -70.38, 29.81 103.39 27.56 71
4 10/08/2024 22:37:35 70.08,-162.94 76.32 10/08/2024 22:37:37 70.11,-162.94 76.35 3.60 2
5 10/08/2024 23:28:17 -70.01, 4.49 103.74 10/08/2024 23:27:07 -70.00, 4.54 103.75 2.09 70
6 10/11/2024 14:03:47 -70.15, 145.42 102.62 10/11/2024 14:04:36 -70.14, 145.36 102.62 2.45 49
7 10/11/2024 14:54:32 70.07, -47.14 77.32 10/11/2024 14:54:02 70.09, -47.07 77.34 3.50 30
8 10/14/2024 05:30:12 70.77, 92.88 79.00 10/14/2024 05:31:21 70.64, 94.37 78.87 56.62 69
9 10/14/2024 06:20:43 -70.12, -98.75 101.65 10/14/2024 06:20:59 -70.10, -98.80 101.67 2.93 16
10 10/14/2024 07:11:27 69.99, 68.75 78.24 10/14/2024 07:10:26 69.98, 68.68 78.23 2.80 61
11 10/16/2024 21:46:55 70.15,-150.35 79.37 10/16/2024 21:47:48 70.18,-150.38 79.40 3.33 53
12 10/16/2024 22:37:37 -70.08, 17.09 100.70 10/16/2024 22:37:18 -70.07, 17.09 100.71 0.34 19



Historial Predications of SNOs between NOAA-21 and LANDSAT-8
